[ hide orbit diagram ]
For accurate long-term ephemerides, please instead use our Horizons system.This orbit viewer was implemented using two-body methods, and hence should not be used for determining accurate long-term trajectories (over several years or decades) or planetary encounter circumstances.
Orbital Elements at Epoch 2459000.5 (2020-May-31.0) TDB
Reference: JPL 31 (heliocentric ecliptic J2000)
Element | Value | Uncertainty (1-sigma) | Units |
e | .1387646102192798 | 3.9004e-08 | |
a | 2.178640392840043 | 5.4331e-09 | au |
q | 1.876322207919616 | 8.6222e-08 | au |
i | 2.128073077918835 | 3.7792e-06 | deg |
node | 212.0643090721939 | 0.00010105 | deg |
peri | 162.1779665778688 | 0.00010183 | deg |
M | 258.8006966192181 | 1.33e-05 | deg |
tp | 2459330.680770103388 (2021-Apr-26.18077010) | 4.389e-05 | TDB |
period | 1174.564184399245 3.22 | 4.3937e-06 1.203e-08 | d yr |
n | .306496660447832 | 1.1465e-09 | deg/d |
Q | 2.48095857776047 | 6.1871e-09 | au |
|
| | Orbit Determination Parameters
Additional Information
|
[ show covariance matrix ]
Physical Parameter Table
Parameter |
Symbol |
Value |
Units |
Sigma |
Reference |
Notes |
absolute magnitude |
H |
14.6 |
|
n/a |
MPO324369 |
|
diameter |
diameter |
2.854 |
km |
0.174 |
urn:nasa:pds:neowise_diameters_albedos::2.0[mainbelt] (http://adsabs.harvard.edu/abs/2011ApJ...741...68M) |
|
geometric albedo |
albedo |
0.324 |
|
0.130 |
urn:nasa:pds:neowise_diameters_albedos::2.0[mainbelt] (http://adsabs.harvard.edu/abs/2011ApJ...741...68M) |
|
|
6629 Kurtz | Discovered 1982 Oct. 17 by E. Bowell at the Anderson Mesa Station of the Lowell Observatory. |
Named in honor of Paul Kurtz (b. 1925) of the State University of New York at Buffalo. Kurtz is professor emeritus of philosophy, chairman and founder of the Committee for the Scientific Investigation of Claims of the Paranormal (CSICOP), chairman of the Council for Secular Humanism, and founder and chairman of Prometheus Books. A noted author and philosopher, he has written more than 30 books and 650 articles on philosophy, humanism and skepticism. He has been influential in bringing philosophy back from a pure analytical study to a more activist stance. Kurtz actively promotes science and the refutation of pseudoscience. Name suggested and citation provided by J. McGaha. |
NOTE: some special characters may not display properly (any characters within {} are an attempt to place the proper accent above a character) |
Reference: 19960828/MPCPages.arc | Last Updated: 2003-09-26 |
|
|